Year,Month,Day,Hour,Minute,Value (Times are PST for temperature in C)
2013,08,22,00,00,15.20
2013,08,22,00,01,15.10
2013,08,22,00,02,15.10
2013,08,22,00,03,15.00
2013,08,22,00,04,15.00
2013,08,22,00,05,15.00
2013,08,22,00,06,15.00
2013,08,22,00,07,15.00
2013,08,22,00,08,15.00
2013,08,22,00,09,15.00
2013,08,22,00,10,15.00
2013,08,22,00,11,15.00
2013,08,22,00,12,15.00
2013,08,22,00,13,15.00
2013,08,22,00,14,15.00
2013,08,22,00,15,15.00
2013,08,22,00,16,14.90
2013,08,22,00,17,14.90
2013,08,22,00,18,14.90
2013,08,22,00,19,14.90
2013,08,22,00,20,14.90
2013,08,22,00,21,14.90
2013,08,22,00,22,14.90
2013,08,22,00,23,14.80
2013,08,22,00,24,14.80
2013,08,22,00,25,14.80
2013,08,22,00,26,14.80
2013,08,22,00,27,14.80
2013,08,22,00,28,14.80
2013,08,22,00,29,14.90
2013,08,22,00,30,14.90
2013,08,22,00,31,14.90
2013,08,22,00,32,15.00
2013,08,22,00,33,15.00
2013,08,22,00,34,15.00
2013,08,22,00,35,15.00
2013,08,22,00,36,15.00
2013,08,22,00,37,15.00
2013,08,22,00,38,15.10
2013,08,22,00,39,15.20
2013,08,22,00,40,15.30
2013,08,22,00,41,15.30
2013,08,22,00,42,15.30
2013,08,22,00,43,15.40
2013,08,22,00,44,15.40
2013,08,22,00,45,15.40
2013,08,22,00,46,15.40
2013,08,22,00,47,15.40
2013,08,22,00,48,15.40
2013,08,22,00,49,15.40
2013,08,22,00,50,15.40
2013,08,22,00,51,15.50
2013,08,22,00,52,15.50
2013,08,22,00,53,15.50
2013,08,22,00,54,15.40
2013,08,22,00,55,15.40
2013,08,22,00,56,15.40
2013,08,22,00,57,15.40
2013,08,22,00,58,15.40
2013,08,22,00,59,15.30
2013,08,22,01,00,15.30
2013,08,22,01,01,15.30
2013,08,22,01,02,15.30
2013,08,22,01,03,15.30
2013,08,22,01,04,15.30
2013,08,22,01,05,15.30
2013,08,22,01,06,15.30
2013,08,22,01,07,15.30
2013,08,22,01,08,15.30
2013,08,22,01,09,15.30
2013,08,22,01,10,15.30
2013,08,22,01,11,15.40
2013,08,22,01,12,15.40
2013,08,22,01,13,15.40
2013,08,22,01,14,15.40
2013,08,22,01,15,15.40
2013,08,22,01,16,15.40
2013,08,22,01,17,15.50
2013,08,22,01,18,15.50
2013,08,22,01,19,15.50
2013,08,22,01,20,15.50
2013,08,22,01,21,15.50
2013,08,22,01,22,15.50
2013,08,22,01,23,15.50
2013,08,22,01,24,15.50
2013,08,22,01,25,15.40
2013,08,22,01,26,15.40
2013,08,22,01,27,15.40
2013,08,22,01,28,15.40
2013,08,22,01,29,15.30
2013,08,22,01,30,15.30
2013,08,22,01,31,15.30
2013,08,22,01,32,15.30
2013,08,22,01,33,15.30
2013,08,22,01,34,15.30
2013,08,22,01,35,15.30
2013,08,22,01,36,15.30
2013,08,22,01,37,15.30
2013,08,22,01,38,15.30
2013,08,22,01,39,15.30
2013,08,22,01,40,15.30
2013,08,22,01,41,15.30
2013,08,22,01,42,15.30
2013,08,22,01,43,15.30
2013,08,22,01,44,15.30
2013,08,22,01,45,15.30
2013,08,22,01,46,15.30
2013,08,22,01,47,15.30
2013,08,22,01,48,15.30
2013,08,22,01,49,15.40
2013,08,22,01,50,15.40
2013,08,22,01,51,15.40
2013,08,22,01,52,15.40
2013,08,22,01,53,15.40
2013,08,22,01,54,15.40
2013,08,22,01,55,15.40
2013,08,22,01,56,15.40
2013,08,22,01,57,15.40
2013,08,22,01,58,15.40
2013,08,22,01,59,15.40
2013,08,22,02,00,15.40
2013,08,22,02,01,15.40
2013,08,22,02,02,15.40
2013,08,22,02,03,15.40
2013,08,22,02,04,15.40
2013,08,22,02,05,15.40
2013,08,22,02,06,15.40
2013,08,22,02,07,15.40
2013,08,22,02,08,15.40
2013,08,22,02,09,15.40
2013,08,22,02,10,15.30
2013,08,22,02,11,15.30
2013,08,22,02,12,15.30
2013,08,22,02,13,15.30
2013,08,22,02,14,15.30
2013,08,22,02,15,15.30
2013,08,22,02,16,15.30
2013,08,22,02,17,15.30
2013,08,22,02,18,15.20
2013,08,22,02,19,15.20
2013,08,22,02,20,15.20
2013,08,22,02,21,15.20
2013,08,22,02,22,15.10
2013,08,22,02,23,15.10
2013,08,22,02,24,15.10
2013,08,22,02,25,15.10
2013,08,22,02,26,15.10
2013,08,22,02,27,15.10
2013,08,22,02,28,15.10
2013,08,22,02,29,15.10
2013,08,22,02,30,15.10
2013,08,22,02,31,15.10
2013,08,22,02,32,15.10
2013,08,22,02,33,15.10
2013,08,22,02,34,15.10
2013,08,22,02,35,15.10
2013,08,22,02,36,15.10
2013,08,22,02,37,15.10
2013,08,22,02,38,15.00
2013,08,22,02,39,15.00
2013,08,22,02,40,15.00
2013,08,22,02,41,15.00
2013,08,22,02,42,15.00
2013,08,22,02,43,15.00
2013,08,22,02,44,15.00
2013,08,22,02,45,15.00
2013,08,22,02,46,15.00
2013,08,22,02,47,15.00
2013,08,22,02,48,15.00
2013,08,22,02,49,15.00
2013,08,22,02,50,15.00
2013,08,22,02,51,15.00
2013,08,22,02,52,15.00
2013,08,22,02,53,15.00
2013,08,22,02,54,15.00
2013,08,22,02,55,15.00
2013,08,22,02,56,15.00
2013,08,22,02,57,15.00
2013,08,22,02,58,15.00
2013,08,22,02,59,15.00
2013,08,22,03,00,15.00
2013,08,22,03,01,14.90
2013,08,22,03,02,15.00
2013,08,22,03,03,14.90
2013,08,22,03,04,14.90
2013,08,22,03,05,14.90
2013,08,22,03,06,14.90
2013,08,22,03,07,14.90
2013,08,22,03,08,14.90
2013,08,22,03,09,14.90
2013,08,22,03,10,14.80
2013,08,22,03,11,14.80
2013,08,22,03,12,14.70
2013,08,22,03,13,14.70
2013,08,22,03,14,14.70
2013,08,22,03,15,14.60
2013,08,22,03,16,14.60
2013,08,22,03,17,14.60
2013,08,22,03,18,14.60
2013,08,22,03,19,14.60
2013,08,22,03,20,14.60
2013,08,22,03,21,14.60
2013,08,22,03,22,14.60
2013,08,22,03,23,14.60
2013,08,22,03,24,14.60
2013,08,22,03,25,14.60
2013,08,22,03,26,14.70
2013,08,22,03,27,14.70
2013,08,22,03,28,14.70
2013,08,22,03,29,14.70
2013,08,22,03,30,14.70
2013,08,22,03,31,14.70
2013,08,22,03,32,14.70
2013,08,22,03,33,14.70
2013,08,22,03,34,14.70
2013,08,22,03,35,14.70
2013,08,22,03,36,14.80
2013,08,22,03,37,14.80
2013,08,22,03,38,14.80
2013,08,22,03,39,14.80
2013,08,22,03,40,14.70
2013,08,22,03,41,14.70
2013,08,22,03,42,14.70
2013,08,22,03,43,14.70
2013,08,22,03,44,14.70
2013,08,22,03,45,14.70
2013,08,22,03,46,14.70
2013,08,22,03,47,14.70
2013,08,22,03,48,14.60
2013,08,22,03,49,14.60
2013,08,22,03,50,14.60
2013,08,22,03,51,14.60
2013,08,22,03,52,14.60
2013,08,22,03,53,14.60
2013,08,22,03,54,14.50
2013,08,22,03,55,14.50
2013,08,22,03,56,14.50
2013,08,22,03,57,14.40
2013,08,22,03,58,14.40
2013,08,22,03,59,14.40
2013,08,22,04,00,14.40
2013,08,22,04,01,14.40
2013,08,22,04,02,14.30
2013,08,22,04,03,14.30
2013,08,22,04,04,14.30
2013,08,22,04,05,14.30
2013,08,22,04,06,14.30
2013,08,22,04,07,14.30
2013,08,22,04,08,14.30
2013,08,22,04,09,14.30
2013,08,22,04,10,14.20
2013,08,22,04,11,14.20
2013,08,22,04,12,14.20
2013,08,22,04,13,14.20
2013,08,22,04,14,14.20
2013,08,22,04,15,14.10
2013,08,22,04,16,14.10
2013,08,22,04,17,14.10
2013,08,22,04,18,14.10
2013,08,22,04,19,14.10
2013,08,22,04,20,14.10
2013,08,22,04,21,14.10
2013,08,22,04,22,14.00
2013,08,22,04,23,14.00
2013,08,22,04,24,14.00
2013,08,22,04,25,14.00
2013,08,22,04,26,14.00
2013,08,22,04,27,13.90
2013,08,22,04,28,13.90
2013,08,22,04,29,13.80
2013,08,22,04,30,13.80
2013,08,22,04,31,13.80
2013,08,22,04,32,13.70
2013,08,22,04,33,13.70
2013,08,22,04,34,13.70
2013,08,22,04,35,13.70
2013,08,22,04,36,13.70
2013,08,22,04,37,13.70
2013,08,22,04,38,13.70
2013,08,22,04,39,13.70
2013,08,22,04,40,13.70
2013,08,22,04,41,13.70
2013,08,22,04,42,13.70
2013,08,22,04,43,13.70
2013,08,22,04,44,13.70
2013,08,22,04,45,13.70
2013,08,22,04,46,13.70
2013,08,22,04,47,13.80
2013,08,22,04,48,13.80
2013,08,22,04,49,13.80
2013,08,22,04,50,13.80
2013,08,22,04,51,13.80
2013,08,22,04,52,13.80
2013,08,22,04,53,13.80
2013,08,22,04,54,13.80
2013,08,22,04,55,13.80
2013,08,22,04,56,13.80
2013,08,22,04,57,13.80
2013,08,22,04,58,13.80
2013,08,22,04,59,13.80
2013,08,22,05,00,13.80
2013,08,22,05,01,13.90
2013,08,22,05,02,13.90
2013,08,22,05,03,13.90
2013,08,22,05,04,13.90
2013,08,22,05,05,13.90
2013,08,22,05,06,13.90
2013,08,22,05,07,13.90
2013,08,22,05,08,13.90
2013,08,22,05,09,13.90
2013,08,22,05,10,13.90
2013,08,22,05,11,13.90
2013,08,22,05,12,13.90
2013,08,22,05,13,13.90
2013,08,22,05,14,13.90
2013,08,22,05,15,14.00
2013,08,22,05,16,14.00
2013,08,22,05,17,14.00
2013,08,22,05,18,14.00
2013,08,22,05,19,14.00
2013,08,22,05,20,14.00
2013,08,22,05,21,14.00
2013,08,22,05,22,13.90
2013,08,22,05,23,13.90
2013,08,22,05,24,13.90
2013,08,22,05,25,13.90
2013,08,22,05,26,13.90
2013,08,22,05,27,13.90
2013,08,22,05,28,13.80
2013,08,22,05,29,13.80
2013,08,22,05,30,13.80
2013,08,22,05,31,13.80
2013,08,22,05,32,13.80
2013,08,22,05,33,13.70
2013,08,22,05,34,13.70
2013,08,22,05,35,13.70
2013,08,22,05,36,13.70
2013,08,22,05,37,13.70
2013,08,22,05,38,13.60
2013,08,22,05,39,13.60
2013,08,22,05,40,13.60
2013,08,22,05,41,13.60
2013,08,22,05,42,13.60
2013,08,22,05,43,13.60
2013,08,22,05,44,13.60
2013,08,22,05,45,13.60
2013,08,22,05,46,13.60
2013,08,22,05,47,13.60
2013,08,22,05,48,13.60
2013,08,22,05,49,13.60
2013,08,22,05,50,13.60
2013,08,22,05,51,13.60
2013,08,22,05,52,13.60
2013,08,22,05,53,13.60
2013,08,22,05,54,13.60
2013,08,22,05,55,13.60
2013,08,22,05,56,13.60
2013,08,22,05,57,13.60
2013,08,22,05,58,13.60
2013,08,22,05,59,13.50
2013,08,22,06,00,13.50
2013,08,22,06,01,13.50
2013,08,22,06,02,13.50
2013,08,22,06,03,13.50
2013,08,22,06,04,13.50
2013,08,22,06,05,13.50
2013,08,22,06,06,13.50
2013,08,22,06,07,13.50
2013,08,22,06,08,13.50
2013,08,22,06,09,13.50
2013,08,22,06,10,13.50
2013,08,22,06,11,13.60
2013,08,22,06,12,13.60
2013,08,22,06,13,13.60
2013,08,22,06,14,13.60
2013,08,22,06,15,13.60
2013,08,22,06,16,13.60
2013,08,22,06,17,13.60
2013,08,22,06,18,13.60
2013,08,22,06,19,13.60
2013,08,22,06,20,13.60
2013,08,22,06,21,13.60
2013,08,22,06,22,13.60
2013,08,22,06,23,13.60
2013,08,22,06,24,13.60
2013,08,22,06,25,13.60
2013,08,22,06,26,13.60
2013,08,22,06,27,13.60
2013,08,22,06,28,13.60
2013,08,22,06,29,13.60
2013,08,22,06,30,13.70
2013,08,22,06,31,13.70
2013,08,22,06,32,13.70
2013,08,22,06,33,13.70
2013,08,22,06,34,13.80
2013,08,22,06,35,13.80
2013,08,22,06,36,13.80
2013,08,22,06,37,13.80
2013,08,22,06,38,13.80
2013,08,22,06,39,13.90
2013,08,22,06,40,13.90
2013,08,22,06,41,14.00
2013,08,22,06,42,14.00
2013,08,22,06,43,14.10
2013,08,22,06,44,14.10
2013,08,22,06,45,14.10
2013,08,22,06,46,14.20
2013,08,22,06,47,14.20
2013,08,22,06,48,14.20
2013,08,22,06,49,14.20
2013,08,22,06,50,14.30
2013,08,22,06,51,14.30
2013,08,22,06,52,14.30
2013,08,22,06,53,14.30
2013,08,22,06,54,14.40
2013,08,22,06,55,14.40
2013,08,22,06,56,14.40
2013,08,22,06,57,14.40
2013,08,22,06,58,14.40
2013,08,22,06,59,14.50
2013,08,22,07,00,14.50
2013,08,22,07,01,14.50
2013,08,22,07,02,14.50
2013,08,22,07,03,14.60
2013,08,22,07,04,14.60
2013,08,22,07,05,14.60
2013,08,22,07,06,14.60
2013,08,22,07,07,14.60
2013,08,22,07,08,14.60
2013,08,22,07,09,14.60
2013,08,22,07,10,14.60
2013,08,22,07,11,14.60
2013,08,22,07,12,14.70
2013,08,22,07,13,14.70
2013,08,22,07,14,14.70
2013,08,22,07,15,14.80
2013,08,22,07,16,14.80
2013,08,22,07,17,14.80
2013,08,22,07,18,14.80
2013,08,22,07,19,14.90
2013,08,22,07,20,14.90
2013,08,22,07,21,15.00
2013,08,22,07,22,15.00
2013,08,22,07,23,15.00
2013,08,22,07,24,15.00
2013,08,22,07,25,15.00
2013,08,22,07,26,15.00
2013,08,22,07,27,15.00
2013,08,22,07,28,15.10
2013,08,22,07,29,15.10
2013,08,22,07,30,15.10
2013,08,22,07,31,15.20
2013,08,22,07,32,15.20
2013,08,22,07,33,15.30
2013,08,22,07,34,15.30
2013,08,22,07,35,15.40
2013,08,22,07,36,15.50
2013,08,22,07,37,15.50
2013,08,22,07,38,15.60
2013,08,22,07,39,15.70
2013,08,22,07,40,15.70
2013,08,22,07,41,15.80
2013,08,22,07,42,15.80
2013,08,22,07,43,15.80
2013,08,22,07,44,15.80
2013,08,22,07,45,15.80
2013,08,22,07,46,15.80
2013,08,22,07,47,15.80
2013,08,22,07,48,15.80
2013,08,22,07,49,15.80
2013,08,22,07,50,15.90
2013,08,22,07,51,15.90
2013,08,22,07,52,15.90
2013,08,22,07,53,15.90
2013,08,22,07,54,16.00
2013,08,22,07,55,16.00
2013,08,22,07,56,16.10
2013,08,22,07,57,16.10
2013,08,22,07,58,16.20
2013,08,22,07,59,16.20
2013,08,22,08,00,16.30
2013,08,22,08,01,16.30
2013,08,22,08,02,16.40
2013,08,22,08,03,16.50
2013,08,22,08,04,16.60
2013,08,22,08,05,16.60
2013,08,22,08,06,16.70
2013,08,22,08,07,16.80
2013,08,22,08,08,16.90
2013,08,22,08,09,16.90
2013,08,22,08,10,17.00
2013,08,22,08,11,17.10
2013,08,22,08,12,17.10
2013,08,22,08,13,17.20
2013,08,22,08,14,17.30
2013,08,22,08,15,17.30
2013,08,22,08,16,17.40
2013,08,22,08,17,17.40
2013,08,22,08,18,17.50
2013,08,22,08,19,17.50
2013,08,22,08,20,17.60
2013,08,22,08,21,17.70
2013,08,22,08,22,17.70
2013,08,22,08,23,17.80
2013,08,22,08,24,17.80
2013,08,22,08,25,17.90
2013,08,22,08,26,17.90
2013,08,22,08,27,18.00
2013,08,22,08,28,18.00
2013,08,22,08,29,18.10
2013,08,22,08,30,18.20
2013,08,22,08,31,18.20
2013,08,22,08,32,18.30
2013,08,22,08,33,18.30
2013,08,22,08,34,18.40
2013,08,22,08,35,18.40
2013,08,22,08,36,18.50
2013,08,22,08,37,18.50
2013,08,22,08,38,18.60
2013,08,22,08,39,18.60
2013,08,22,08,40,18.70
2013,08,22,08,41,18.70
2013,08,22,08,42,18.80
2013,08,22,08,43,18.90
2013,08,22,08,44,18.90
2013,08,22,08,45,18.90
2013,08,22,08,46,19.00
2013,08,22,08,47,19.00
2013,08,22,08,48,19.10
2013,08,22,08,49,19.10
2013,08,22,08,50,19.20
2013,08,22,08,51,19.30
2013,08,22,08,52,19.30
2013,08,22,08,53,19.40
2013,08,22,08,54,19.40
2013,08,22,08,55,19.40
2013,08,22,08,56,19.40
2013,08,22,08,57,19.40
2013,08,22,08,58,19.40
2013,08,22,08,59,19.40
2013,08,22,09,00,19.40
2013,08,22,09,01,19.40
2013,08,22,09,02,19.40
2013,08,22,09,03,19.50
2013,08,22,09,04,19.50
2013,08,22,09,05,19.50
2013,08,22,09,06,19.60
2013,08,22,09,07,19.60
2013,08,22,09,08,19.70
2013,08,22,09,09,19.70
2013,08,22,09,10,19.70
2013,08,22,09,11,19.70
2013,08,22,09,12,19.70
2013,08,22,09,13,19.80
2013,08,22,09,14,19.80
2013,08,22,09,15,19.90
2013,08,22,09,16,19.90
2013,08,22,09,17,20.00
2013,08,22,09,18,20.10
2013,08,22,09,19,20.10
2013,08,22,09,20,20.20
2013,08,22,09,21,20.20
2013,08,22,09,22,20.30
2013,08,22,09,23,20.40
2013,08,22,09,24,20.50
2013,08,22,09,25,20.50
2013,08,22,09,26,20.60
2013,08,22,09,27,20.60
2013,08,22,09,28,20.70
2013,08,22,09,29,20.80
2013,08,22,09,30,20.80
2013,08,22,09,31,20.90
2013,08,22,09,32,20.90
2013,08,22,09,33,21.00
2013,08,22,09,34,21.00
2013,08,22,09,35,21.00
2013,08,22,09,36,21.10
2013,08,22,09,37,21.10
2013,08,22,09,38,21.10
2013,08,22,09,39,21.20
2013,08,22,09,40,21.20
2013,08,22,09,41,21.30
2013,08,22,09,42,21.40
2013,08,22,09,43,21.60
2013,08,22,09,44,21.70
2013,08,22,09,45,21.90
2013,08,22,09,46,22.00
2013,08,22,09,47,22.10
2013,08,22,09,48,22.20
2013,08,22,09,49,22.30
2013,08,22,09,50,22.30
2013,08,22,09,51,22.30
2013,08,22,09,52,22.30
2013,08,22,09,53,22.30
2013,08,22,09,54,22.30
2013,08,22,09,55,22.20
2013,08,22,09,56,22.10
2013,08,22,09,57,22.00
2013,08,22,09,58,21.90
2013,08,22,09,59,21.80
2013,08,22,10,00,21.80
2013,08,22,10,01,21.80
2013,08,22,10,02,21.80
2013,08,22,10,03,21.80
2013,08,22,10,04,21.90
2013,08,22,10,05,21.90
2013,08,22,10,06,21.90
2013,08,22,10,07,22.00
2013,08,22,10,08,21.90
2013,08,22,10,09,21.90
2013,08,22,10,10,22.00
2013,08,22,10,11,22.00
2013,08,22,10,12,22.00
2013,08,22,10,13,22.10
2013,08,22,10,14,22.10
2013,08,22,10,15,22.10
2013,08,22,10,16,22.10
2013,08,22,10,17,22.10
2013,08,22,10,18,22.10
2013,08,22,10,19,22.10
2013,08,22,10,20,22.10
2013,08,22,10,21,22.10
2013,08,22,10,22,22.10
2013,08,22,10,23,22.10
2013,08,22,10,24,22.00
2013,08,22,10,25,22.00
2013,08,22,10,26,22.00
2013,08,22,10,27,22.00
2013,08,22,10,28,22.00
2013,08,22,10,29,22.00
2013,08,22,10,30,22.00
2013,08,22,10,31,22.10
2013,08,22,10,32,22.10
2013,08,22,10,33,22.20
2013,08,22,10,34,22.20
2013,08,22,10,35,22.30
2013,08,22,10,36,22.30
2013,08,22,10,37,22.40
2013,08,22,10,38,22.50
2013,08,22,10,39,22.60
2013,08,22,10,40,22.70
2013,08,22,10,41,22.70
2013,08,22,10,42,22.80
2013,08,22,10,43,22.70
2013,08,22,10,44,22.70
2013,08,22,10,45,22.70
2013,08,22,10,46,22.60
2013,08,22,10,47,22.50
2013,08,22,10,48,22.50
2013,08,22,10,49,22.50
2013,08,22,10,50,22.50
2013,08,22,10,51,22.50
2013,08,22,10,52,22.50
2013,08,22,10,53,22.40
2013,08,22,10,54,22.40
2013,08,22,10,55,22.50
2013,08,22,10,56,22.50
2013,08,22,10,57,22.50
2013,08,22,10,58,22.60
2013,08,22,10,59,22.70
2013,08,22,11,00,22.70
2013,08,22,11,01,22.70
2013,08,22,11,02,22.70
2013,08,22,11,03,22.70
2013,08,22,11,04,22.70
2013,08,22,11,05,22.70
2013,08,22,11,06,22.70
2013,08,22,11,07,22.70
2013,08,22,11,08,22.70
2013,08,22,11,09,22.70
2013,08,22,11,10,22.70
2013,08,22,11,11,22.80
2013,08,22,11,12,22.90
2013,08,22,11,13,23.00
2013,08,22,11,14,23.00
2013,08,22,11,15,23.10
2013,08,22,11,16,23.30
2013,08,22,11,17,23.40
2013,08,22,11,18,23.40
2013,08,22,11,19,23.40
2013,08,22,11,20,23.40
2013,08,22,11,21,23.40
2013,08,22,11,22,23.40
2013,08,22,11,23,23.40
2013,08,22,11,24,23.40
2013,08,22,11,25,23.40
2013,08,22,11,26,23.50
2013,08,22,11,27,23.50
2013,08,22,11,28,23.60
2013,08,22,11,29,23.60
2013,08,22,11,30,23.60
2013,08,22,11,31,23.70
2013,08,22,11,32,23.70
2013,08,22,11,33,23.50
2013,08,22,11,34,23.40
2013,08,22,11,35,23.20
2013,08,22,11,36,23.00
2013,08,22,11,37,22.90
2013,08,22,11,38,22.80
2013,08,22,11,39,22.60
2013,08,22,11,40,22.40
2013,08,22,11,41,22.20
2013,08,22,11,42,22.10
2013,08,22,11,43,22.10
2013,08,22,11,44,22.10
2013,08,22,11,45,22.20
2013,08,22,11,46,22.20
2013,08,22,11,47,22.10
2013,08,22,11,48,22.10
2013,08,22,11,49,22.10
2013,08,22,11,50,22.10
2013,08,22,11,51,22.10
2013,08,22,11,52,22.10
2013,08,22,11,53,22.10
2013,08,22,11,54,22.20
2013,08,22,11,55,22.20
2013,08,22,11,56,22.30
2013,08,22,11,57,22.50
2013,08,22,11,58,22.70
2013,08,22,11,59,22.80
2013,08,22,12,00,22.90
2013,08,22,12,01,22.90
2013,08,22,12,02,23.00
2013,08,22,12,03,23.10
2013,08,22,12,04,23.20
2013,08,22,12,05,23.10
2013,08,22,12,06,23.10
2013,08,22,12,07,23.10
2013,08,22,12,08,23.10
2013,08,22,12,09,23.00
2013,08,22,12,10,23.00
2013,08,22,12,11,23.00
2013,08,22,12,12,23.00
2013,08,22,12,13,23.10
2013,08,22,12,14,23.10
2013,08,22,12,15,23.10
2013,08,22,12,16,23.20
2013,08,22,12,17,23.40
2013,08,22,12,18,23.50
2013,08,22,12,19,23.60
2013,08,22,12,20,23.70
2013,08,22,12,21,23.70
2013,08,22,12,22,23.60
2013,08,22,12,23,23.60
2013,08,22,12,24,23.40
2013,08,22,12,25,23.20
2013,08,22,12,26,23.00
2013,08,22,12,27,22.80
2013,08,22,12,28,22.80
2013,08,22,12,29,22.80
2013,08,22,12,30,22.80
2013,08,22,12,31,22.70
2013,08,22,12,32,22.60
2013,08,22,12,33,22.60
2013,08,22,12,34,22.60
2013,08,22,12,35,22.60
2013,08,22,12,36,22.70
2013,08,22,12,37,22.70
2013,08,22,12,38,22.80
2013,08,22,12,39,22.90
2013,08,22,12,40,23.00
2013,08,22,12,41,23.10
2013,08,22,12,42,23.10
2013,08,22,12,43,23.10
2013,08,22,12,44,23.10
2013,08,22,12,45,23.10
2013,08,22,12,46,23.00
2013,08,22,12,47,22.80
2013,08,22,12,48,22.60
2013,08,22,12,49,22.50
2013,08,22,12,50,22.40
2013,08,22,12,51,22.30
2013,08,22,12,52,22.20
2013,08,22,12,53,22.20
2013,08,22,12,54,22.20
2013,08,22,12,55,22.20
2013,08,22,12,56,22.10
2013,08,22,12,57,22.00
2013,08,22,12,58,21.90
2013,08,22,12,59,21.90
2013,08,22,13,00,22.00
2013,08,22,13,01,22.10
2013,08,22,13,02,22.20
2013,08,22,13,03,22.20
2013,08,22,13,04,22.20
2013,08,22,13,05,22.20
2013,08,22,13,06,22.30
2013,08,22,13,07,22.40
2013,08,22,13,08,22.40
2013,08,22,13,09,22.50
2013,08,22,13,10,22.50
2013,08,22,13,11,22.50
2013,08,22,13,12,22.60
2013,08,22,13,13,22.60
2013,08,22,13,14,22.70
2013,08,22,13,15,22.80
2013,08,22,13,16,22.80
2013,08,22,13,17,22.80
2013,08,22,13,18,22.70
2013,08,22,13,19,22.60
2013,08,22,13,20,22.60
2013,08,22,13,21,22.70
2013,08,22,13,22,22.80
2013,08,22,13,23,22.80
2013,08,22,13,24,22.90
2013,08,22,13,25,23.00
2013,08,22,13,26,23.10
2013,08,22,13,27,23.10
2013,08,22,13,28,23.00
2013,08,22,13,29,23.00
2013,08,22,13,30,23.00
2013,08,22,13,31,22.90
2013,08,22,13,32,22.90
2013,08,22,13,33,22.90
2013,08,22,13,34,23.00
2013,08,22,13,35,23.10
2013,08,22,13,36,23.20
2013,08,22,13,37,23.20
2013,08,22,13,38,23.30
2013,08,22,13,39,23.30
2013,08,22,13,40,23.30
2013,08,22,13,41,23.20
2013,08,22,13,42,23.30
2013,08,22,13,43,23.30
2013,08,22,13,44,23.40
2013,08,22,13,45,23.40
2013,08,22,13,46,23.50
2013,08,22,13,47,23.50
2013,08,22,13,48,23.60
2013,08,22,13,49,23.60
2013,08,22,13,50,23.60
2013,08,22,13,51,23.70
2013,08,22,13,52,23.70
2013,08,22,13,53,23.70
2013,08,22,13,54,23.70
2013,08,22,13,55,23.60
2013,08,22,13,56,23.70
2013,08,22,13,57,23.70
2013,08,22,13,58,23.60
2013,08,22,13,59,23.60
2013,08,22,14,00,23.60
2013,08,22,14,01,23.60
2013,08,22,14,02,23.70
2013,08,22,14,03,23.70
2013,08,22,14,04,23.80
2013,08,22,14,05,23.80
2013,08,22,14,06,23.80
2013,08,22,14,07,23.70
2013,08,22,14,08,23.80
2013,08,22,14,09,23.80
2013,08,22,14,10,23.80
2013,08,22,14,11,23.70
2013,08,22,14,12,23.70
2013,08,22,14,13,23.70
2013,08,22,14,14,23.60
2013,08,22,14,15,23.60
2013,08,22,14,16,23.50
2013,08,22,14,17,23.50
2013,08,22,14,18,23.40
2013,08,22,14,19,23.40
2013,08,22,14,20,23.50
2013,08,22,14,21,23.60
2013,08,22,14,22,23.60
2013,08,22,14,23,23.70
2013,08,22,14,24,23.70
2013,08,22,14,25,23.80
2013,08,22,14,26,23.80
2013,08,22,14,27,23.90
2013,08,22,14,28,24.00
2013,08,22,14,29,24.10
2013,08,22,14,30,24.20
2013,08,22,14,31,24.30
2013,08,22,14,32,24.50
2013,08,22,14,33,24.60
2013,08,22,14,34,24.60
2013,08,22,14,35,24.70
2013,08,22,14,36,24.80
2013,08,22,14,37,24.90
2013,08,22,14,38,24.90
2013,08,22,14,39,25.00
2013,08,22,14,40,25.00
2013,08,22,14,41,25.10
2013,08,22,14,42,25.10
2013,08,22,14,43,25.10
2013,08,22,14,44,25.10
2013,08,22,14,45,25.10
2013,08,22,14,46,25.20
2013,08,22,14,47,25.20
2013,08,22,14,48,25.20
2013,08,22,14,49,25.20
2013,08,22,14,50,25.20
2013,08,22,14,51,25.20
2013,08,22,14,52,25.10
2013,08,22,14,53,25.10
2013,08,22,14,54,25.10
2013,08,22,14,55,25.10
2013,08,22,14,56,25.00
2013,08,22,14,57,25.00
2013,08,22,14,58,25.00
2013,08,22,14,59,25.00
2013,08,22,15,00,24.90
2013,08,22,15,01,24.90
2013,08,22,15,02,24.90
2013,08,22,15,03,25.00
2013,08,22,15,04,25.00
2013,08,22,15,05,25.00
2013,08,22,15,06,25.10
2013,08,22,15,07,25.10
2013,08,22,15,08,25.20
2013,08,22,15,09,25.30
2013,08,22,15,10,25.40
2013,08,22,15,11,25.50
2013,08,22,15,12,25.60
2013,08,22,15,13,25.60
2013,08,22,15,14,25.70
2013,08,22,15,15,25.70
2013,08,22,15,16,25.70
2013,08,22,15,17,25.70
2013,08,22,15,18,25.60
2013,08,22,15,19,25.60
2013,08,22,15,20,25.50
2013,08,22,15,21,25.50
2013,08,22,15,22,25.40
2013,08,22,15,23,25.40
2013,08,22,15,24,25.40
2013,08,22,15,25,25.40
2013,08,22,15,26,25.30
2013,08,22,15,27,25.10
2013,08,22,15,28,24.90
2013,08,22,15,29,24.70
2013,08,22,15,30,24.40
2013,08,22,15,31,24.20
2013,08,22,15,32,23.90
2013,08,22,15,33,23.80
2013,08,22,15,34,23.70
2013,08,22,15,35,23.60
2013,08,22,15,36,23.50
2013,08,22,15,37,23.40
2013,08,22,15,38,23.40
2013,08,22,15,39,23.40
2013,08,22,15,40,23.40
2013,08,22,15,41,23.50
2013,08,22,15,42,23.50
2013,08,22,15,43,23.60
2013,08,22,15,44,23.60
2013,08,22,15,45,23.70
2013,08,22,15,46,23.70
2013,08,22,15,47,23.80
2013,08,22,15,48,23.90
2013,08,22,15,49,23.90
2013,08,22,15,50,23.90
2013,08,22,15,51,23.90
2013,08,22,15,52,23.80
2013,08,22,15,53,23.70
2013,08,22,15,54,23.50
2013,08,22,15,55,23.30
2013,08,22,15,56,23.10
2013,08,22,15,57,23.00
2013,08,22,15,58,22.80
2013,08,22,15,59,22.70
2013,08,22,16,00,22.70
2013,08,22,16,01,22.60
2013,08,22,16,02,22.60
2013,08,22,16,03,22.60
2013,08,22,16,04,22.60
2013,08,22,16,05,22.60
2013,08,22,16,06,22.60
2013,08,22,16,07,22.60
2013,08,22,16,08,22.60
2013,08,22,16,09,22.70
2013,08,22,16,10,22.70
2013,08,22,16,11,22.70
2013,08,22,16,12,22.80
2013,08,22,16,13,22.80
2013,08,22,16,14,22.90
2013,08,22,16,15,22.90
2013,08,22,16,16,22.70
2013,08,22,16,17,22.50
2013,08,22,16,18,22.30
2013,08,22,16,19,22.10
2013,08,22,16,20,22.10
2013,08,22,16,21,22.00
2013,08,22,16,22,21.90
2013,08,22,16,23,21.90
2013,08,22,16,24,21.90
2013,08,22,16,25,21.90
2013,08,22,16,26,22.00
2013,08,22,16,27,22.10
2013,08,22,16,28,22.10
2013,08,22,16,29,22.00
2013,08,22,16,30,22.00
2013,08,22,16,31,22.00
2013,08,22,16,32,21.90
2013,08,22,16,33,21.80
2013,08,22,16,34,21.80
2013,08,22,16,35,21.70
2013,08,22,16,36,21.70
2013,08,22,16,37,21.80
2013,08,22,16,38,21.80
2013,08,22,16,39,22.00
2013,08,22,16,40,22.10
2013,08,22,16,41,22.30
2013,08,22,16,42,22.50
2013,08,22,16,43,22.70
2013,08,22,16,44,22.90
2013,08,22,16,45,23.00
2013,08,22,16,46,23.10
2013,08,22,16,47,23.20
2013,08,22,16,48,23.20
2013,08,22,16,49,23.10
2013,08,22,16,50,23.00
2013,08,22,16,51,22.90
2013,08,22,16,52,22.90
2013,08,22,16,53,22.80
2013,08,22,16,54,22.80
2013,08,22,16,55,22.70
2013,08,22,16,56,22.60
2013,08,22,16,57,22.40
2013,08,22,16,58,22.20
2013,08,22,16,59,22.00
2013,08,22,17,00,21.80
2013,08,22,17,01,21.60
2013,08,22,17,02,21.40
2013,08,22,17,03,21.20
2013,08,22,17,04,21.10
2013,08,22,17,05,21.00
2013,08,22,17,06,20.90
2013,08,22,17,07,21.00
2013,08,22,17,08,21.00
2013,08,22,17,09,21.10
2013,08,22,17,10,21.00
2013,08,22,17,11,21.00
2013,08,22,17,12,20.90
2013,08,22,17,13,20.90
2013,08,22,17,14,20.80
2013,08,22,17,15,20.80
2013,08,22,17,16,20.80
2013,08,22,17,17,20.70
2013,08,22,17,18,20.70
2013,08,22,17,19,20.70